www.pogodaiklimat.ru

Погода и климат >> Архив погоды >> Пакистан >> Ханевал


ПОГОДА в Ханевале

  • Прогноз погоды в Ханевале
  • Монитор погоды в Ханевале

АРХИВ ПОГОДЫ в Ханевале

Время (UTC), дата Ветер
(напр.,м/с)
 
Видим.   Явления Облачность Т
(С)
Тd
(С)
f
(%)
Тe
(С)
Тes
(С)
Комфортность P
(гПа)
Po
(гПа)
Тmin
(С)
Tmax
(С)
R
(мм)
R24
(мм)
S
(см)
15 19.06 штиль 0 4000 м дым 5/0
[Ac trans]
+35.0 +24.9 56 +48 +48 опасность
перегрева
996.3 981.8
18 19.06 штиль 0 4000 м дым 5/0
[Ac trans]
+32.0 +24.2 63 +44 +44 опасность
перегрева
997.6 981.2
21 19.06 штиль 0 4000 м дым 4/0
[Ac trans]
+30.0 +24.3 72 +42 +42 опасность
перегрева
996.5 981.8
00 20.06 штиль 0 4000 м дым 3/0
[Ac trans]
+27.0 +23.4 81 +37 +37 очень
душно
996.7 980.3
03 20.06 штиль 0 4000 м дым 3/0
[Ac trans]
+33.0 +24.6 61 +46 +53 опасность
перегрева
999.4 983.0 +26.0
06 20.06 штиль 0 4000 м мгла 3/0
[Ac trans]
+37.0 +22.8 44 +46 +69 опасность
перегрева
1000.0 983.6
09 20.06 Ю 2 4000 м мгла 3/3 1200 м
[Sc diur, vesp]
+39.0 +22.7 39 +48 +60 опасность
перегрева
999.0 984.7
12 20.06 Ю 2 4000 м мгла 3/0
[Ac trans]
+39.0 +22.7 39 +48 +51 опасность
перегрева
996.6 980.2 +39.5
18 20.06 С 2 4000 м дым {гроза} 10/8 1200 м
[Sc Ac As]
+23.0 +21.5 91 +31 +31 очень
душно
1000.7 984.3 4
21 20.06 штиль 0 4000 м дым 8/8 1200 м
[Sc Ac As]
+23.0 +21.5 91 +31 +31 очень
душно
998.6 983.5
00 21.06 штиль 0 4000 м дым 9/3 1200 м
[Sc Ac As]
+23.0 +21.5 91 +31 +31 очень
душно
999.3 982.9
03 21.06 штиль 0 4000 м дым 8/0
[Ac As]
+26.0 +21.5 76 +33 +37 очень
душно
1003.0 986.6 +22.5
06 21.06 штиль 0 4000 м дым 8/0
[Ac trans]
+31.5 +21.2 54 +39 +53 опасность
солнечного
удара
1003.0 986.6
09 21.06 штиль 0 4000 м мгла 8/0
[Ac trans]
+34.5 +22.2 49 +43 +56 опасность
перегрева
1001.6 987.0
12 21.06 В 1 4000 м мгла 4/0
[Ac trans]
+35.0 +23.7 52 +46 +50 опасность
перегрева
998.9 982.5 +36.0
15 21.06 штиль 0 4000 м дым 8/0
[Ac trans]
+34.0 +25.7 62 +49 +49 опасность
перегрева
998.9 984.3
18 21.06 штиль 0 4000 м дым 8/0
[Ac trans]
+30.0 +24.3 72 +42 +42 опасность
перегрева
999.8 983.4
21 21.06 штиль 0 4000 м дым 8/0
[Ac trans]
+28.5 +25.7 85 +42 +42 опасность
перегрева
998.9 984.1
00 22.06 штиль 0 4000 м дым 8/0
[Ac trans]
+27.5 +25.4 88 +40 +40 очень
душно
1000.1 983.7
03 22.06 СЗ 2 4000 м дым 8/4 1200 м
[Sc diur, vesp Ac As]
+30.5 +25.6 75 +45 +47 опасность
перегрева
1000.2 983.8 +27.0
06 22.06 штиль 0 4000 м дым 8/0
[Ac trans]
+34.5 +25.5 60 +49 +64 опасность
перегрева
1001.0 984.6 5
09 22.06 штиль 0 4000 м дым 8/0
[Ci fib]
+38.0 +23.1 43 +48 +69 опасность
перегрева
999.5 985.1
12 22.06 штиль 0 4000 м дым 5/0
[Ci fib]
+38.0 +24.0 45 +49 +55 опасность
перегрева
998.1 981.7 +39.0
15 22.06 штиль 0 4000 м дым 4/0
[Ac trans]
+35.0 +27.6 66 +55 +55 опасность
перегрева
997.3 982.8
18 22.06 штиль 0 4000 м дым 3/0
[Ac trans]
+32.5 +26.3 70 +49 +49 опасность
перегрева
998.6 982.2
21 22.06 штиль 0 4000 м дым 4/0
[Ac trans]
+30.0 +25.1 75 +43 +43 опасность
перегрева
998.5 983.8
00 23.06 штиль 0 4000 м дым 4/0
[Ac trans]
+28.0 +24.4 81 +39 +39 очень
душно
999.2 982.8
03 23.06 штиль 0 4000 м дым 3/0
[Ci fib]
+31.0 +25.4 72 +45 +54 опасность
перегрева
999.1 982.7 +27.8
06 23.06 ЮЗ 1 4000 м мгла ясно +38.5 +23.8 43 +49 +73 опасность
перегрева
998.6 982.2
09 23.06 ЮВ 1 4000 м мгла ясно +40.0 +23.1 38 +49 +71 опасность
перегрева
997.8 983.5
12 23.06 ЮВ 1 4000 м мгла ясно +39.5 +23.3 40 +49 +55 опасность
перегрева
995.5 979.1 +41.0
15 23.06 СВ 2 4000 м дым 9/4 1200 м
[Sc Ac As]
+28.5 +22.7 71 +38 +38 очень
душно
998.5 983.7 4
18 23.06 СВ 3 4000 м в посл. час дождь 10/6 1200 м
[Sc Ac As]
+22.0 +20.5 91 +28 +28 душно 1001.1 984.7 4
21 23.06 штиль 0 4000 м дым 10/6 1200 м
[Sc Ac As]
+21.5 +19.1 86 +26 +26 душно 997.8 982.6
00 24.06 штиль 0 4000 м дым 10/5 1200 м
[Sc Ac As]
+20.5 +18.9 91 +24 +24 комфорт 998.1 981.7
03 24.06 СВ 1 4000 м дым 10/5 1200 м
[Sc Ac As]
+23.5 +21.2 87 +30 +31 очень
душно
1002.7 986.3
06 24.06 СВ 1 4000 м дым 10/5 1200 м
[Sc Ac As]
+27.0 +24.1 84 +37 +41 очень
душно
1003.2 986.8
09 24.06 штиль 0 4000 м мгла 6/3 1200 м
[Sc Ac As]
+32.5 +24.0 61 +44 +56 опасность
перегрева
1002.6 987.9
12 24.06 штиль 0 4000 м дым 6/3 1200 м
[Sc Ac As]
+32.5 +23.2 58 +43 +46 опасность
перегрева
1000.4 984.0 +33.5
15 24.06 штиль 0 4000 м дым ясно +30.5 +25.6 75 +45 +45 опасность
перегрева
1001.1 986.3
18 24.06 штиль 0 4000 м дым ясно +27.5 +23.9 81 +38 +38 очень
душно
1002.7 986.3
21 24.06 штиль 0 4000 м дым 8/4 1200 м
[Sc Ac As]
+26.0 +23.8 88 +36 +36 очень
душно
1002.3 987.3
00 25.06 штиль 0 4000 м дым 9/5 1200 м
[Sc Ac As]
+25.0 +23.5 91 +34 +34 очень
душно
1002.4 986.0
03 25.06 СВ 1 4000 м дым 4/0
[Ac As]
+28.0 +24.4 81 +39 +45 очень
душно
1002.3 985.9 +23.0
06 25.06 штиль 0 4000 м дым ясно +34.0 +24.1 56 +46 +73 опасность
перегрева
1002.8 986.4
09 25.06 штиль 0 4000 м дым 3/3 1200 м
[Sc diur, vesp]
+37.0 +25.2 51 +51 +68 опасность
перегрева
1001.7 987.2
12 25.06 штиль 0 4000 м мгла ясно +38.0 +24.0 45 +49 +55 опасность
перегрева
999.7 983.3 +38.5
15 25.06 штиль 0 4000 м дым ясно +33.5 +24.4 59 +46 +46 опасность
перегрева
999.5 984.9
18 25.06 штиль 0 4000 м дым ясно +29.0 +25.5 81 +43 +43 опасность
перегрева
1000.0 983.6
21 25.06 штиль 0 4000 м дым ясно +27.5 +24.7 85 +39 +39 очень
душно
999.4 984.5
00 26.06 штиль 0 4000 м дым ясно +26.5 +24.4 88 +37 +37 очень
душно
999.2 982.8
03 26.06 штиль 0 4000 м дым 3/0
[Ac trans]
+32.0 +25.0 67 +46 +53 опасность
перегрева
999.9 983.6 +26.0
06 26.06 Ю 1 4000 м мгла ясно +37.5 +25.0 49 +51 +74 опасность
перегрева
999.5 983.1

 

Местоположение метеостанции Ханевал (Пакистан): широта 30.30 долгота 71.90 высота над уровнем моря 132 м.

В архиве по умолчанию представлена погода в Ханевале за последнюю неделю. Архивные данные за месяц целиком и за предыдущие месяцы, начиная с января 2011 года, Вы можете получить, выбрав интересующий диапазон дат из раскрывающегося списка и нажав кнопку "Ввод!".


*Определитесь, кто Вы:
робот инопланетянин человек

Внимание! Время в таблицах - всемирное. Для получения местного времени необходимо прибавить поправку, которая равна 5 ч.

Смотрите также архив погоды в соседних городах и на ближайших метеорологических станциях:

Погода в Мултане (Пакистан) (47 км)
Погода на Авиабазе Raifiqui (Пакистан) (61 км)
Погода в Кот Адду (Пакистан) (93 км)
Погода в Тоба Тек Сингх (Пакистан) (93 км)
Погода в Бахавалпуре (Пакистан) (101 км)
Погода а Бахавалпур аэропорту (Пакистан) (101 км)
Погода в Сахивале (Пакистан) (115 км)
Погода в Джанге (Пакистан) (115 км)
Погода в Леяхе (Пакистан) (120 км)
Погода в Дера Гази Хан (Пакистан) (125 км)

Пояснения к столбцам:

Ветер - указаны скорость ветра в м/с - средняя за 10 мин, порывы в срок и между сроками (в фигурных скобках) и направление, откуда дует ветер: С - северный, СВ - северо-восточный, В - восточный, ЮВ - юго-восточный, Ю - южный, ЮЗ - юго-западный, З - западный, СЗ - северо-западный.
Видимость - горизонтальная дальность видимости в метрах или километрах. При видимости от 1 до 10 км при отсутствии осадков обычно наблюдается дымка, при ухудшении видимости до 1 км и менее - туман. В сухую погоду видимость может ухудшаться дымом, пылью или мглою.
Явления - указаны атмосферные явления, наблюдавшиеся в срок или в последний час перед сроком; фигурными скобками обозначены явления, наблюдавшиеся между сроками (за 1-3 часа до срока); квадратными скобками обозначены град или гололедные отложения с указанием их диаметра в мм.
Облачность - указаны через наклонную черту общая и нижняя облачность в баллах и высота нижней границы облаков в метрах; квадратными скобками обозначены формы облаков: Ci - перистые, Cs - перисто-слоистые, Cc - перисто-кучевые, Ac - высококучевые, As - высокослоистые, Sc - слоисто-кучевые, Ns - слоисто-дождевые, Cu - кучевые, Cb - кучево-дождевые. Подробнее классификацию облаков см. в Атласе облаков (PDF).
T - Температура воздуха - температура, измеренная на высоте 2 м над землей.
Td - Температура точки росы - температура, при понижении до которой содержащийся в воздухе водяной пар достигнет насыщения.
f - Относительная влажность воздуха - влажноcть воздуха, измеренная на высоте 2 м над землей.
Te - Эффективная температура - температура, которую ощущает одетый по сезону человек в тени. Характеристика душности погоды. При расчете учитывается влияние влажности воздуха и скорости ветра на теплоощущения человека.
Tes - Эффективная температура на солнце - температура, которую ощущает человек, с поправкой на солнечный нагрев. Характеристика знойности погоды. Зависит от высоты солнца над горизонтом, облачности и скорости ветра. Ночью, в пасмурную погоду, а также при ветре 12 м/с и более поправка равна нулю.
P - Атмосферное давление - приведенное к уровню моря атмосферное давление.
Po - Атмосферное давление - измеренное на уровне метеостанции атмосферное давление.
Tmin - Минимальная температура - минимум температуры воздуха на высоте 2 м над землей.
Tmax - Максимальная температура - максимум температуры воздуха на высоте 2 м над землей.
R - Количество осадков - Количество выпавших осадков за период времени, мм. При наведении курсора мыши на число - период времени, за который выпало указанное количество осадков.
R24 - Количество осадков - Количество выпавших осадков за 24 часа, мм.
S - Снежный покров - Высота снежного покрова, см. При наведении курсора мыши на число - состояние снежного покрова и степень покрытия местности в баллах.